User: anonymous   Login
Location: Unspecified
(0.0000°N, 0.0000°E)
Time: 22:11:10
(UTC+00:00)
Language:

USA 223 - Orbit

View from above orbital plane
View from above orbital plane
View from above satellite
View from above satellite

Ground track
Ground track

The orbit data is extracted from the following two-line orbital elements,

1 37232U 10063A   19029.80683860 0.00000000  00000-0  00000-0 0    00
2 37232   3.3410 154.2998 0043712 130.5782 229.8201  1.00270000    05
Epoch (UTC): 29 January 2019 19:21:50
Eccentricity: 0.0043712
inclination: 3.3410°
perigee height: 35602 km
apogee height: 35971 km
right ascension of ascending node: 154.2998°
argument of perigee: 130.5782°
revolutions per day: 1.00270000
mean anomaly at epoch: 229.8201°
orbit number at epoch: 0

The dashed part of the orbit path shows where the satellite is in the earth's shadow,  

DLR